QPF
0.00 0.00 0.03 0.07 0.14 0.14 0.07 0.02 0.01 0.00 0.00 0.01 0.00 0.00 0.01 0.02 0.04 0.06 0.05 0.04 0.03 0.04 0.03 0.03 0.03 0.05 0.07 0.09 0.09 0.06 0.05 0.06 0.08 0.11 0.13 0.14 0.16 0.18 0.19 0.21 0.14 0.09 0.12 0.19 0.14 0.11 0.13 0.13 0.12
0.00 0.01 0.03 0.11 0.18 0.10 0.07 0.02 0.00 0.00 0.00 0.00 0.00 0.01 0.01 0.01 0.01 0.03 0.05 0.02 0.03 0.04 0.04 0.03 0.03 0.04 0.06 0.07 0.08 0.09 0.07 0.06 0.08 0.13 0.19 0.19 0.12 0.14 0.16 0.17 0.13 0.11 0.14 0.15 0.11 0.08 0.08 0.09 0.11
0.01 0.02 0.07 0.16 0.11 0.08 0.06 0.02 0.00 0.00 0.00 0.00 0.00 0.01 0.01 0.02 0.01 0.03 0.03 0.01 0.02 0.02 0.03 0.02 0.03 0.05 0.05 0.05 0.07 0.09 0.08 0.08 0.11 0.16 0.16 0.12 0.10 0.11 0.14 0.18 0.19 0.17 0.13 0.09 0.07 0.07 0.10 0.10 0.09
0.01 0.08 0.11 0.11 0.07 0.04 0.02 0.01 0.00 0.00 0.00 0.00 0.01 0.01 0.01 0.01 0.01 0.01 0.00 0.00 0.02 0.02 0.02 0.02 0.02 0.04 0.04 0.06 0.07 0.09 0.11 0.15 0.18 0.15 0.12 0.10 0.09 0.11 0.12 0.11 0.14 0.12 0.10 0.09 0.07 0.08 0.09 0.09 0.08
0.03 0.11 0.15 0.08 0.06 0.02 0.00 0.00 0.00 0.01 0.01 0.00 0.00 0.01 0.02 0.01 0.00 0.00 0.00 0.01 0.03 0.03 0.02 0.02 0.02 0.03 0.05 0.09 0.16 0.22 0.21 0.21 0.18 0.10 0.07 0.09 0.09 0.10 0.11 0.09 0.09 0.08 0.07 0.08 0.07 0.06 0.07 0.09 0.09
0.05 0.09 0.12 0.09 0.04 0.01 0.01 0.00 0.01 0.01 0.01 0.00 0.00 0.01 0.03 0.01 0.00 0.01 0.01 0.02 0.04 0.03 0.02 0.03 0.02 0.03 0.05 0.09 0.16 0.21 0.19 0.17 0.12 0.08 0.08 0.09 0.09 0.09 0.07 0.05 0.05 0.06 0.06 0.07 0.07 0.06 0.06 0.07 0.08
0.08 0.10 0.09 0.05 0.02 0.02 0.01 0.01 0.01 0.01 0.01 0.00 0.00 0.01 0.02 0.02 0.01 0.01 0.01 0.03 0.05 0.02 0.02 0.03 0.02 0.03 0.07 0.11 0.13 0.11 0.11 0.11 0.09 0.08 0.09 0.09 0.08 0.08 0.06 0.05 0.06 0.08 0.07 0.06 0.05 0.06 0.06 0.06 0.08
0.04 0.08 0.09 0.05 0.02 0.02 0.01 0.00 0.00 0.00 0.00 0.00 0.00 0.01 0.02 0.02 0.02 0.01 0.02 0.05 0.05 0.02 0.02 0.03 0.03 0.04 0.05 0.05 0.06 0.07 0.08 0.06 0.07 0.08 0.09 0.07 0.06 0.07 0.07 0.06 0.06 0.08 0.09 0.07 0.06 0.06 0.06 0.06 0.07
0.02 0.06 0.06 0.04 0.02 0.01 0.01 0.00 0.00 0.00 0.00 0.00 0.00 0.01 0.01 0.02 0.02 0.01 0.01 0.03 0.03 0.02 0.02 0.02 0.02 0.04 0.05 0.04 0.05 0.06 0.05 0.06 0.07 0.07 0.07 0.08 0.09 0.10 0.11 0.10 0.09 0.07 0.07 0.08 0.06 0.05 0.04 0.04 0.03
0.02 0.04 0.03 0.01 0.01 0.01 0.01 0.01 0.01 0.01 0.02 0.01 0.01 0.01 0.01 0.01 0.01 0.01 0.01 0.03 0.02 0.02 0.02 0.02 0.02 0.02 0.04 0.05 0.05 0.07 0.05 0.05 0.06 0.07 0.07 0.07 0.10 0.09 0.07 0.07 0.07 0.06 0.06 0.06 0.05 0.04 0.04 0.04 0.05
0.01 0.02 0.02 0.01 0.01 0.00 0.00 0.01 0.01 0.01 0.02 0.02 0.01 0.01 0.01 0.01 0.03 0.05 0.03 0.04 0.03 0.03 0.02 0.02 0.03 0.03 0.04 0.04 0.04 0.04 0.04 0.06 0.06 0.06 0.06 0.09 0.09 0.10 0.08 0.08 0.07 0.07 0.06 0.07 0.06 0.06 0.06 0.08 0.08
0.02 0.01 0.01 0.00 0.00 0.00 0.00 0.00 0.01 0.02 0.03 0.03 0.01 0.01 0.00 0.01 0.02 0.03 0.03 0.04 0.03 0.03 0.02 0.03 0.03 0.03 0.03 0.04 0.05 0.03 0.04 0.05 0.04 0.05 0.05 0.07 0.09 0.12 0.10 0.12 0.09 0.09 0.10 0.11 0.10 0.10 0.09 0.08 0.07
0.02 0.01 0.00 0.00 0.00 0.00 0.00 0.00 0.01 0.01 0.01 0.01 0.00 0.00 0.00 0.00 0.01 0.02 0.03 0.03 0.02 0.03 0.03 0.03 0.03 0.03 0.03 0.04 0.06 0.04 0.04 0.05 0.04 0.05 0.04 0.04 0.07 0.10 0.11 0.11 0.10 0.08 0.09 0.10 0.12 0.11 0.10 0.08 0.07
0.01 0.00 0.00 0.00 0.00 0.00 0.00 0.00 0.00 0.00 0.00 0.00 0.00 0.00 0.00 0.00 0.00 0.00 0.02 0.02 0.01 0.02 0.02 0.01 0.02 0.03 0.03 0.04 0.04 0.04 0.03 0.04 0.04 0.04 0.03 0.04 0.06 0.09 0.09 0.10 0.11 0.09 0.08 0.09 0.09 0.09 0.09 0.09 0.08
0.00 0.01 0.00 0.00 0.00 0.00 0.01 0.02 0.00 0.00 0.00 0.00 0.00 0.00 0.00 0.00 0.00 0.00 0.00 0.01 0.00 0.00 0.01 0.01 0.02 0.02 0.03 0.05 0.05 0.04 0.03 0.04 0.04 0.05 0.04 0.07 0.07 0.08 0.09 0.10 0.09 0.08 0.07 0.08 0.08 0.06 0.08 0.09 0.09
0.02 0.02 0.01 0.00 0.00 0.00 0.02 0.03 0.00 0.00 0.00 0.00 0.00 0.00 0.00 0.00 0.00 0.01 0.01 0.01 0.01 0.00 0.00 0.00 0.00 0.03 0.03 0.04 0.05 0.06 0.05 0.05 0.05 0.05 0.05 0.06 0.06 0.07 0.09 0.10 0.09 0.07 0.07 0.08 0.07 0.06 0.08 0.08 0.09
0.02 0.02 0.01 0.01 0.00 0.00 0.01 0.02 0.00 0.00 0.00 0.00 0.00 0.00 0.00 0.00 0.00 0.01 0.02 0.02 0.03 0.01 0.01 0.02 0.02 0.05 0.04 0.04 0.06 0.07 0.06 0.06 0.06 0.05 0.05 0.05 0.04 0.03 0.05 0.07 0.08 0.07 0.06 0.08 0.06 0.07 0.06 0.08 0.10
0.02 0.01 0.01 0.01 0.00 0.00 0.00 0.00 0.00 0.00 0.00 0.00 0.00 0.00 0.00 0.01 0.00 0.01 0.03 0.04 0.09 0.07 0.02 0.03 0.03 0.03 0.05 0.05 0.10 0.11 0.09 0.08 0.07 0.06 0.06 0.03 0.03 0.03 0.03 0.06 0.05 0.03 0.05 0.06 0.07 0.06 0.07 0.08 0.11
0.02 0.02 0.02 0.01 0.00 0.00 0.01 0.00 0.00 0.01 0.00 0.01 0.01 0.00 0.00 0.00 0.01 0.02 0.06 0.07 0.08 0.05 0.02 0.03 0.05 0.04 0.06 0.08 0.11 0.11 0.11 0.08 0.07 0.08 0.06 0.04 0.03 0.03 0.05 0.04 0.04 0.04 0.04 0.05 0.05 0.06 0.07 0.07 0.08
0.02 0.02 0.02 0.01 0.00 0.01 0.01 0.01 0.01 0.01 0.01 0.00 0.00 0.00 0.00 0.00 0.01 0.03 0.04 0.04 0.02 0.01 0.02 0.02 0.04 0.03 0.04 0.06 0.07 0.08 0.08 0.07 0.06 0.08 0.07 0.05 0.03 0.04 0.04 0.05 0.03 0.03 0.04 0.04 0.06 0.07 0.07 0.06 0.08
0.01 0.02 0.02 0.01 0.01 0.01 0.03 0.03 0.03 0.04 0.01 0.00 0.00 0.00 0.00 0.00 0.01 0.02 0.01 0.01 0.02 0.01 0.01 0.02 0.04 0.04 0.04 0.04 0.05 0.06 0.06 0.05 0.07 0.07 0.07 0.05 0.04 0.04 0.05 0.05 0.04 0.04 0.04 0.05 0.06 0.07 0.07 0.06 0.07
0.00 0.00 0.01 0.00 0.01 0.02 0.02 0.04 0.05 0.06 0.03 0.01 0.00 0.00 0.00 0.00 0.01 0.02 0.01 0.01 0.00 0.01 0.01 0.01 0.02 0.03 0.03 0.04 0.05 0.04 0.05 0.05 0.06 0.07 0.08 0.06 0.07 0.05 0.05 0.06 0.07 0.08 0.06 0.05 0.04 0.06 0.05 0.05 0.06
0.00 0.00 0.00 0.00 0.01 0.01 0.01 0.03 0.05 0.05 0.02 0.00 0.00 0.00 0.00 0.00 0.00 0.00 0.00 0.01 0.00 0.00 0.01 0.01 0.01 0.03 0.03 0.03 0.03 0.03 0.03 0.04 0.05 0.06 0.06 0.05 0.06 0.05 0.04 0.05 0.07 0.07 0.07 0.05 0.05 0.05 0.04 0.04 0.04
0.00 0.00 0.00 0.01 0.01 0.02 0.01 0.04 0.08 0.06 0.03 0.01 0.01 0.01 0.01 0.01 0.00 0.00 0.00 0.01 0.01 0.00 0.00 0.01 0.03 0.04 0.03 0.02 0.02 0.02 0.02 0.03 0.04 0.05 0.04 0.04 0.05 0.05 0.04 0.04 0.04 0.05 0.06 0.06 0.06 0.06 0.05 0.05 0.04
0.00 0.01 0.03 0.03 0.03 0.02 0.01 0.01 0.04 0.05 0.04 0.01 0.00 0.01 0.01 0.00 0.00 0.00 0.00 0.00 0.00 0.00 0.00 0.01 0.04 0.05 0.03 0.02 0.02 0.02 0.02 0.02 0.03 0.03 0.03 0.02 0.02 0.03 0.04 0.04 0.04 0.04 0.05 0.04 0.04 0.04 0.05 0.04 0.04
0.00 0.03 0.05 0.06 0.05 0.03 0.01 0.02 0.03 0.01 0.01 0.00 0.00 0.01 0.01 0.00 0.00 0.00 0.00 0.00 0.00 0.01 0.02 0.03 0.04 0.04 0.03 0.02 0.01 0.02 0.02 0.02 0.02 0.02 0.01 0.01 0.01 0.01 0.02 0.04 0.03 0.02 0.02 0.02 0.03 0.04 0.04 0.04 0.03
0.00 0.01 0.02 0.02 0.02 0.03 0.03 0.03 0.04 0.02 0.01 0.00 0.00 0.00 0.00 0.00 0.00 0.00 0.00 0.01 0.01 0.02 0.04 0.04 0.02 0.02 0.02 0.01 0.01 0.01 0.01 0.01 0.01 0.01 0.01 0.01 0.01 0.01 0.02 0.03 0.04 0.03 0.02 0.02 0.03 0.03 0.04 0.04 0.04
0.00 0.00 0.01 0.01 0.02 0.04 0.06 0.07 0.06 0.03 0.01 0.00 0.00 0.00 0.00 0.00 0.00 0.00 0.00 0.01 0.01 0.02 0.05 0.06 0.03 0.01 0.01 0.01 0.02 0.01 0.01 0.01 0.01 0.01 0.01 0.01 0.01 0.01 0.02 0.03 0.04 0.04 0.03 0.03 0.03 0.02 0.03 0.04 0.05
0.00 0.00 0.00 0.00 0.02 0.05 0.07 0.04 0.03 0.02 0.01 0.01 0.01 0.00 0.00 0.00 0.00 0.00 0.01 0.02 0.02 0.04 0.05 0.05 0.04 0.02 0.02 0.02 0.02 0.02 0.02 0.03 0.02 0.03 0.02 0.02 0.02 0.02 0.02 0.03 0.04 0.04 0.03 0.03 0.03 0.02 0.03 0.03 0.03
0.00 0.00 0.00 0.01 0.02 0.03 0.03 0.03 0.01 0.01 0.01 0.00 0.00 0.00 0.00 0.00 0.00 0.00 0.01 0.02 0.03 0.05 0.06 0.11 0.08 0.06 0.04 0.03 0.04 0.03 0.05 0.06 0.05 0.04 0.03 0.03 0.02 0.02 0.03 0.03 0.03 0.03 0.03 0.03 0.02 0.02 0.03 0.04 0.04
MSLP
1007.09 1007.95 1008.88 1009.70 1010.27 1010.54 1010.50 1010.25 1009.90 1009.59 1009.38 1009.30 1009.30 1009.28 1009.15 1008.81 1008.24 1007.46 1006.54 1005.58 1004.64 1003.80 1003.07 1002.46 1001.95 1001.53 1001.19 1000.92 1000.69 1000.41 999.92 999.00 997.40 994.93 991.51 987.21 982.33 977.33 972.82 969.45 967.72 967.89 969.97 973.66 978.44 983.68 988.71 993.02 996.33
1007.63 1008.66 1009.66 1010.46 1010.93 1011.04 1010.82 1010.38 1009.88 1009.44 1009.13 1008.98 1008.90 1008.82 1008.62 1008.23 1007.61 1006.81 1005.90 1004.98 1004.12 1003.37 1002.73 1002.20 1001.74 1001.34 1001.00 1000.72 1000.49 1000.24 999.83 999.05 997.67 995.49 992.40 988.46 983.94 979.27 975.01 971.80 970.09 970.18 972.07 975.49 979.95 984.85 989.57 993.62 996.73
1008.38 1009.54 1010.56 1011.28 1011.60 1011.51 1011.09 1010.47 1009.82 1009.26 1008.87 1008.64 1008.50 1008.34 1008.06 1007.59 1006.91 1006.07 1005.16 1004.28 1003.50 1002.84 1002.32 1001.88 1001.49 1001.13 1000.79 1000.50 1000.27 1000.05 999.74 999.18 998.14 996.41 993.89 990.61 986.76 982.71 978.98 976.12 974.56 974.57 976.16 979.11 982.99 987.25 991.36 994.87 997.56
1009.25 1010.46 1011.44 1012.04 1012.18 1011.88 1011.27 1010.50 1009.72 1009.10 1008.66 1008.39 1008.21 1007.99 1007.63 1007.07 1006.31 1005.42 1004.49 1003.64 1002.93 1002.38 1001.96 1001.63 1001.31 1000.98 1000.64 1000.33 1000.07 999.87 999.66 999.33 998.67 997.50 995.69 993.23 990.24 987.04 984.02 981.65 980.32 980.26 981.50 983.86 986.97 990.40 993.69 996.48 998.60
1010.11 1011.30 1012.18 1012.61 1012.56 1012.08 1011.31 1010.44 1009.62 1008.99 1008.57 1008.32 1008.13 1007.88 1007.46 1006.83 1005.99 1005.04 1004.10 1003.26 1002.60 1002.14 1001.82 1001.57 1001.32 1001.01 1000.64 1000.28 999.96 999.73 999.58 999.44 999.14 998.52 997.44 995.85 993.81 991.52 989.29 987.50 986.44 986.33 987.20 988.92 991.21 993.72 996.12 998.13 999.62
1010.82 1011.93 1012.65 1012.90 1012.66 1012.04 1011.19 1010.29 1009.50 1008.94 1008.61 1008.44 1008.31 1008.08 1007.64 1006.96 1006.08 1005.08 1004.11 1003.29 1002.67 1002.26 1002.02 1001.83 1001.61 1001.29 1000.88 1000.41 999.99 999.68 999.52 999.49 999.46 999.30 998.86 998.06 996.89 995.47 994.01 992.77 992.01 991.87 992.40 993.52 995.03 996.69 998.24 999.52 1000.44
1011.29 1012.25 1012.80 1012.86 1012.48 1011.77 1010.90 1010.04 1009.37 1008.96 1008.78 1008.76 1008.73 1008.57 1008.17 1007.49 1006.59 1005.58 1004.61 1003.79 1003.19 1002.83 1002.62 1002.45 1002.23 1001.87 1001.37 1000.79 1000.22 999.78 999.54 999.51 999.62 999.76 999.79 999.60 999.13 998.43 997.62 996.87 996.36 996.22 996.49 997.13 998.00 998.96 999.83 1000.52 1000.99
1011.46 1012.26 1012.63 1012.55 1012.06 1011.32 1010.49 1009.76 1009.24 1009.02 1009.05 1009.20 1009.32 1009.26 1008.94 1008.32 1007.45 1006.46 1005.50 1004.70 1004.13 1003.78 1003.57 1003.40 1003.14 1002.72 1002.12 1001.40 1000.68 1000.07 999.68 999.57 999.70 999.97 1000.27 1000.46 1000.47 1000.29 999.96 999.58 999.29 999.17 999.27 999.58 1000.00 1000.47 1000.88 1001.17 1001.36
1011.36 1012.01 1012.24 1012.04 1011.52 1010.80 1010.06 1009.48 1009.16 1009.14 1009.36 1009.68 1009.96 1010.03 1009.81 1009.28 1008.48 1007.56 1006.66 1005.90 1005.34 1005.00 1004.78 1004.57 1004.26 1003.77 1003.07 1002.23 1001.36 1000.58 1000.04 999.78 999.82 1000.08 1000.46 1000.83 1001.10 1001.21 1001.18 1001.06 1000.93 1000.85 1000.88 1001.00 1001.19 1001.39 1001.55 1001.66 1001.73
1011.10 1011.63 1011.75 1011.51 1010.98 1010.33 1009.72 1009.29 1009.15 1009.30 1009.68 1010.15 1010.54 1010.73 1010.62 1010.20 1009.52 1008.70 1007.88 1007.18 1006.66 1006.32 1006.08 1005.83 1005.47 1004.90 1004.13 1003.20 1002.22 1001.32 1000.63 1000.22 1000.13 1000.29 1000.61 1001.00 1001.33 1001.56 1001.68 1001.69 1001.66 1001.64 1001.67 1001.75 1001.86 1001.99 1002.10 1002.19 1002.27
1010.82 1011.26 1011.33 1011.08 1010.61 1010.05 1009.57 1009.28 1009.27 1009.54 1010.00 1010.54 1011.00 1011.26 1011.25 1010.94 1010.38 1009.70 1009.00 1008.39 1007.92 1007.59 1007.32 1007.04 1006.62 1006.02 1005.20 1004.24 1003.22 1002.26 1001.47 1000.96 1000.73 1000.75 1000.95 1001.24 1001.52 1001.74 1001.87 1001.93 1001.96 1002.00 1002.08 1002.21 1002.38 1002.57 1002.75 1002.92 1003.10
1010.65 1011.04 1011.11 1010.89 1010.50 1010.05 1009.68 1009.50 1009.55 1009.85 1010.32 1010.84 1011.30 1011.58 1011.63 1011.42 1011.00 1010.46 1009.90 1009.39 1008.99 1008.68 1008.40 1008.08 1007.64 1007.02 1006.21 1005.26 1004.26 1003.32 1002.53 1001.96 1001.64 1001.55 1001.61 1001.76 1001.92 1002.06 1002.14 1002.18 1002.23 1002.32 1002.47 1002.69 1002.97 1003.29 1003.60 1003.90 1004.18
1010.69 1011.06 1011.14 1010.99 1010.69 1010.35 1010.07 1009.94 1010.01 1010.27 1010.65 1011.09 1011.47 1011.71 1011.78 1011.64 1011.34 1010.95 1010.53 1010.15 1009.82 1009.54 1009.26 1008.92 1008.46 1007.85 1007.08 1006.20 1005.30 1004.44 1003.71 1003.16 1002.82 1002.65 1002.60 1002.62 1002.66 1002.67 1002.67 1002.66 1002.70 1002.82 1003.03 1003.34 1003.73 1004.17 1004.61 1005.03 1005.40
1010.98 1011.33 1011.44 1011.36 1011.16 1010.91 1010.71 1010.60 1010.62 1010.78 1011.02 1011.31 1011.56 1011.72 1011.76 1011.68 1011.49 1011.23 1010.95 1010.68 1010.43 1010.18 1009.90 1009.56 1009.09 1008.50 1007.80 1007.03 1006.25 1005.52 1004.90 1004.44 1004.12 1003.93 1003.82 1003.74 1003.66 1003.57 1003.48 1003.42 1003.42 1003.53 1003.77 1004.13 1004.58 1005.10 1005.63 1006.12 1006.54
1011.44 1011.76 1011.89 1011.88 1011.77 1011.62 1011.47 1011.37 1011.32 1011.36 1011.44 1011.55 1011.64 1011.70 1011.71 1011.66 1011.55 1011.41 1011.25 1011.08 1010.90 1010.68 1010.41 1010.05 1009.59 1009.03 1008.40 1007.73 1007.08 1006.50 1006.02 1005.65 1005.39 1005.21 1005.06 1004.92 1004.76 1004.59 1004.42 1004.30 1004.26 1004.34 1004.56 1004.92 1005.38 1005.91 1006.46 1006.96 1007.39
1011.95 1012.23 1012.38 1012.43 1012.40 1012.34 1012.24 1012.14 1012.04 1011.95 1011.88 1011.82 1011.77 1011.73 1011.70 1011.66 1011.63 1011.59 1011.53 1011.45 1011.32 1011.13 1010.85 1010.48 1010.01 1009.48 1008.91 1008.34 1007.81 1007.36 1006.99 1006.71 1006.50 1006.34 1006.18 1006.00 1005.78 1005.55 1005.32 1005.14 1005.06 1005.09 1005.26 1005.56 1005.98 1006.46 1006.97 1007.44 1007.84
1012.38 1012.60 1012.76 1012.86 1012.93 1012.94 1012.91 1012.82 1012.68 1012.50 1012.31 1012.12 1011.96 1011.84 1011.78 1011.77 1011.79 1011.83 1011.86 1011.84 1011.75 1011.56 1011.28 1010.89 1010.43 1009.92 1009.39 1008.90 1008.45 1008.09 1007.80 1007.58 1007.41 1007.24 1007.06 1006.84 1006.59 1006.32 1006.06 1005.84 1005.70 1005.68 1005.78 1006.00 1006.32 1006.72 1007.14 1007.55 1007.92
1012.60 1012.78 1012.94 1013.11 1013.26 1013.36 1013.39 1013.34 1013.19 1012.96 1012.68 1012.41 1012.18 1012.02 1011.95 1011.97 1012.05 1012.16 1012.24 1012.27 1012.20 1012.02 1011.73 1011.33 1010.86 1010.37 1009.88 1009.44 1009.05 1008.74 1008.49 1008.29 1008.11 1007.92 1007.70 1007.45 1007.17 1006.88 1006.59 1006.36 1006.18 1006.11 1006.14 1006.26 1006.48 1006.76 1007.08 1007.41 1007.73
1012.58 1012.72 1012.92 1013.15 1013.39 1013.59 1013.70 1013.68 1013.54 1013.28 1012.98 1012.66 1012.40 1012.23 1012.17 1012.23 1012.36 1012.52 1012.66 1012.71 1012.66 1012.48 1012.18 1011.78 1011.32 1010.85 1010.40 1010.00 1009.65 1009.36 1009.12 1008.90 1008.68 1008.45 1008.19 1007.90 1007.59 1007.29 1007.00 1006.76 1006.58 1006.47 1006.44 1006.48 1006.58 1006.75 1006.96 1007.21 1007.48
1012.31 1012.47 1012.73 1013.05 1013.39 1013.68 1013.85 1013.88 1013.75 1013.49 1013.16 1012.83 1012.56 1012.40 1012.38 1012.48 1012.66 1012.86 1013.03 1013.11 1013.07 1012.89 1012.60 1012.22 1011.78 1011.35 1010.95 1010.59 1010.28 1010.01 1009.76 1009.51 1009.24 1008.95 1008.63 1008.31 1007.98 1007.68 1007.41 1007.19 1007.02 1006.90 1006.82 1006.79 1006.80 1006.86 1006.97 1007.14 1007.34
1011.90 1012.13 1012.49 1012.92 1013.35 1013.72 1013.95 1014.00 1013.87 1013.60 1013.26 1012.91 1012.65 1012.51 1012.52 1012.65 1012.88 1013.12 1013.32 1013.41 1013.38 1013.22 1012.95 1012.60 1012.22 1011.84 1011.50 1011.20 1010.94 1010.69 1010.44 1010.16 1009.85 1009.51 1009.15 1008.80 1008.47 1008.18 1007.94 1007.76 1007.61 1007.50 1007.40 1007.32 1007.25 1007.22 1007.23 1007.30 1007.44
1011.47 1011.83 1012.31 1012.86 1013.39 1013.82 1014.08 1014.13 1013.98 1013.67 1013.29 1012.93 1012.66 1012.53 1012.56 1012.74 1012.99 1013.26 1013.48 1013.60 1013.59 1013.45 1013.21 1012.91 1012.60 1012.30 1012.04 1011.82 1011.62 1011.41 1011.17 1010.88 1010.55 1010.18 1009.79 1009.43 1009.10 1008.84 1008.64 1008.50 1008.40 1008.30 1008.20 1008.08 1007.95 1007.83 1007.74 1007.72 1007.77
1011.15 1011.65 1012.28 1012.94 1013.56 1014.03 1014.29 1014.31 1014.10 1013.74 1013.31 1012.91 1012.62 1012.50 1012.54 1012.74 1013.02 1013.32 1013.57 1013.70 1013.71 1013.60 1013.40 1013.16 1012.92 1012.70 1012.54 1012.40 1012.27 1012.12 1011.92 1011.65 1011.31 1010.93 1010.54 1010.18 1009.87 1009.64 1009.48 1009.38 1009.31 1009.23 1009.12 1008.98 1008.79 1008.60 1008.42 1008.29 1008.25
1010.99 1011.65 1012.41 1013.18 1013.85 1014.34 1014.57 1014.54 1014.27 1013.83 1013.34 1012.89 1012.58 1012.44 1012.50 1012.72 1013.02 1013.34 1013.61 1013.76 1013.80 1013.72 1013.56 1013.37 1013.19 1013.06 1012.97 1012.92 1012.87 1012.78 1012.62 1012.38 1012.06 1011.70 1011.32 1010.97 1010.69 1010.48 1010.35 1010.28 1010.23 1010.16 1010.05 1009.87 1009.64 1009.38 1009.11 1008.90 1008.76
1010.99 1011.78 1012.65 1013.49 1014.20 1014.68 1014.87 1014.78 1014.43 1013.93 1013.38 1012.89 1012.55 1012.42 1012.48 1012.71 1013.04 1013.38 1013.66 1013.84 1013.90 1013.84 1013.72 1013.57 1013.44 1013.37 1013.34 1013.35 1013.36 1013.32 1013.22 1013.02 1012.73 1012.39 1012.03 1011.70 1011.44 1011.25 1011.14 1011.08 1011.04 1010.97 1010.84 1010.63 1010.36 1010.04 1009.71 1009.42 1009.20
1011.10 1011.96 1012.88 1013.76 1014.46 1014.92 1015.08 1014.93 1014.54 1013.99 1013.41 1012.90 1012.56 1012.44 1012.52 1012.77 1013.12 1013.48 1013.78 1013.98 1014.05 1014.01 1013.91 1013.78 1013.68 1013.64 1013.65 1013.69 1013.73 1013.73 1013.66 1013.49 1013.24 1012.93 1012.60 1012.29 1012.04 1011.86 1011.75 1011.69 1011.63 1011.55 1011.40 1011.17 1010.87 1010.52 1010.15 1009.81 1009.53
1011.20 1012.08 1013.00 1013.86 1014.54 1014.96 1015.08 1014.91 1014.50 1013.96 1013.39 1012.90 1012.60 1012.50 1012.62 1012.89 1013.26 1013.64 1013.96 1014.17 1014.25 1014.22 1014.13 1014.01 1013.91 1013.87 1013.88 1013.93 1013.98 1013.99 1013.94 1013.80 1013.58 1013.29 1012.99 1012.70 1012.46 1012.28 1012.16 1012.08 1012.01 1011.91 1011.74 1011.50 1011.19 1010.83 1010.45 1010.10 1009.81
1011.24 1012.05 1012.91 1013.70 1014.32 1014.71 1014.81 1014.65 1014.27 1013.78 1013.28 1012.86 1012.62 1012.58 1012.74 1013.05 1013.44 1013.84 1014.16 1014.38 1014.46 1014.44 1014.34 1014.22 1014.11 1014.05 1014.04 1014.07 1014.11 1014.12 1014.07 1013.95 1013.75 1013.49 1013.21 1012.95 1012.72 1012.54 1012.42 1012.32 1012.24 1012.12 1011.94 1011.71 1011.40 1011.06 1010.70 1010.37 1010.10
1011.16 1011.85 1012.58 1013.27 1013.81 1014.15 1014.25 1014.13 1013.83 1013.44 1013.04 1012.75 1012.60 1012.64 1012.86 1013.20 1013.61 1014.00 1014.33 1014.54 1014.62 1014.60 1014.50 1014.36 1014.24 1014.16 1014.13 1014.13 1014.15 1014.14 1014.10 1013.98 1013.80 1013.58 1013.33 1013.09 1012.88 1012.71 1012.58 1012.49 1012.39 1012.28 1012.11 1011.89 1011.62 1011.32 1011.01 1010.72 1010.49
1011.00 1011.52 1012.10 1012.64 1013.08 1013.37 1013.48 1013.42 1013.22 1012.96 1012.71 1012.55 1012.52 1012.65 1012.91 1013.28 1013.70 1014.08 1014.39 1014.59 1014.67 1014.65 1014.55 1014.42 1014.29 1014.20 1014.14 1014.13 1014.12 1014.11 1014.06 1013.96 1013.81 1013.61 1013.40 1013.20 1013.02 1012.87 1012.75 1012.66 1012.57 1012.47 1012.32 1012.14 1011.92 1011.67 1011.42 1011.19 1011.00
Thickness
5832 5833 5831 5823 5802 5793 5798 5814 5824 5822 5824 5834 5836 5829 5817 5808 5796 5783 5809 5820 5818 5812 5807 5803 5800 5799 5798 5797 5795 5794 5793 5793 5792 5791 5790 5789 5788 5787 5786 5785 5784 5785 5784 5782 5780 5779 5778 5777 5776
5839 5840 5829 5813 5793 5786 5797 5819 5821 5823 5831 5839 5836 5828 5816 5809 5814 5811 5815 5820 5820 5815 5809 5804 5800 5799 5798 5797 5795 5794 5793 5792 5792 5791 5790 5789 5788 5786 5785 5784 5784 5784 5783 5782 5781 5780 5778 5778 5776
5840 5842 5821 5807 5800 5796 5802 5823 5827 5834 5840 5837 5828 5824 5815 5807 5814 5814 5820 5824 5821 5815 5810 5803 5801 5799 5797 5796 5795 5793 5792 5792 5791 5790 5790 5788 5787 5785 5784 5783 5782 5782 5782 5781 5781 5780 5778 5778 5777
5841 5831 5820 5809 5804 5815 5823 5831 5836 5833 5836 5837 5829 5814 5815 5821 5820 5821 5826 5826 5820 5815 5811 5804 5801 5799 5797 5795 5794 5793 5792 5791 5790 5790 5789 5788 5786 5785 5783 5782 5781 5781 5781 5781 5780 5779 5778 5777 5776
5844 5823 5807 5807 5813 5827 5839 5842 5841 5830 5828 5831 5826 5808 5806 5822 5828 5827 5827 5826 5820 5816 5812 5805 5801 5799 5797 5795 5793 5792 5791 5790 5789 5789 5788 5787 5785 5784 5783 5782 5781 5780 5780 5780 5779 5778 5778 5777 5776
5831 5820 5806 5807 5818 5832 5841 5847 5841 5831 5830 5831 5824 5811 5807 5823 5825 5826 5827 5824 5822 5818 5813 5806 5801 5800 5797 5795 5793 5791 5790 5789 5788 5788 5787 5786 5784 5783 5783 5782 5781 5780 5779 5779 5779 5778 5777 5776 5775
5826 5815 5812 5820 5822 5828 5840 5850 5842 5833 5829 5832 5832 5813 5809 5820 5826 5829 5827 5825 5823 5820 5814 5809 5804 5800 5797 5796 5794 5792 5791 5789 5788 5787 5786 5785 5784 5783 5782 5781 5781 5780 5779 5779 5778 5778 5777 5776 5776
5845 5827 5820 5826 5824 5827 5847 5852 5849 5842 5834 5845 5840 5816 5807 5820 5830 5829 5826 5824 5822 5819 5816 5812 5809 5803 5801 5798 5795 5793 5792 5790 5789 5787 5786 5785 5784 5784 5783 5781 5780 5779 5779 5778 5778 5778 5777 5777 5776
5856 5823 5815 5827 5831 5836 5851 5847 5850 5854 5843 5840 5839 5831 5826 5831 5830 5825 5820 5817 5816 5815 5815 5813 5810 5806 5804 5802 5798 5795 5793 5791 5790 5788 5787 5786 5785 5785 5784 5783 5781 5780 5779 5779 5778 5778 5778 5777 5777
5849 5821 5828 5848 5852 5848 5851 5849 5850 5843 5833 5829 5829 5831 5833 5831 5826 5819 5814 5810 5810 5810 5812 5812 5809 5807 5805 5804 5800 5798 5796 5793 5791 5790 5789 5787 5786 5786 5785 5783 5781 5781 5780 5779 5779 5779 5778 5778 5778
5850 5837 5849 5856 5863 5860 5853 5851 5855 5840 5825 5828 5825 5826 5828 5826 5823 5819 5814 5812 5810 5811 5810 5811 5809 5807 5805 5803 5801 5799 5797 5795 5793 5791 5789 5788 5787 5786 5785 5783 5781 5781 5781 5780 5780 5780 5779 5780 5780
5853 5854 5859 5859 5865 5861 5854 5852 5847 5842 5837 5844 5840 5836 5830 5825 5821 5819 5815 5814 5813 5811 5810 5810 5809 5805 5803 5802 5801 5799 5798 5795 5794 5791 5790 5789 5787 5786 5785 5783 5783 5782 5782 5782 5781 5780 5781 5781 5781
5853 5853 5862 5865 5866 5864 5858 5850 5845 5842 5849 5849 5844 5837 5830 5827 5824 5823 5821 5817 5814 5810 5809 5809 5807 5804 5802 5800 5799 5799 5797 5795 5794 5791 5790 5789 5787 5785 5784 5783 5784 5783 5783 5782 5781 5781 5781 5781 5781
5856 5858 5862 5865 5864 5863 5853 5850 5846 5841 5850 5845 5839 5833 5832 5829 5826 5823 5820 5815 5813 5811 5810 5809 5807 5804 5802 5799 5798 5798 5797 5795 5794 5791 5790 5788 5787 5786 5785 5783 5783 5783 5783 5782 5781 5781 5781 5780 5781
5864 5849 5853 5860 5863 5860 5852 5835 5840 5849 5849 5840 5837 5834 5833 5832 5829 5824 5822 5818 5816 5813 5811 5810 5808 5805 5801 5800 5798 5799 5797 5796 5793 5791 5790 5788 5787 5786 5785 5783 5782 5783 5783 5782 5782 5781 5781 5780 5781
5853 5840 5831 5853 5862 5860 5843 5818 5841 5854 5847 5838 5837 5835 5832 5831 5830 5827 5825 5821 5819 5815 5811 5810 5810 5805 5801 5799 5799 5798 5797 5795 5793 5792 5790 5788 5787 5787 5785 5783 5782 5783 5783 5782 5781 5779 5778 5778 5778
5835 5825 5828 5844 5865 5860 5845 5828 5845 5857 5848 5839 5838 5836 5833 5829 5829 5828 5827 5823 5819 5815 5811 5808 5807 5804 5801 5799 5798 5797 5796 5794 5793 5791 5790 5788 5787 5786 5785 5784 5782 5783 5782 5781 5780 5778 5777 5775 5776
5826 5830 5834 5839 5859 5858 5845 5840 5848 5856 5852 5844 5841 5838 5834 5829 5828 5829 5828 5824 5819 5815 5812 5808 5805 5802 5801 5799 5796 5795 5794 5794 5792 5790 5788 5787 5786 5785 5784 5784 5782 5783 5781 5779 5778 5776 5776 5775 5775
5845 5838 5833 5845 5863 5854 5844 5842 5847 5853 5852 5846 5842 5840 5837 5833 5834 5832 5829 5825 5820 5815 5811 5807 5804 5802 5800 5796 5792 5790 5789 5791 5790 5789 5787 5785 5784 5784 5783 5781 5780 5780 5778 5776 5776 5774 5772 5772 5774
5845 5835 5837 5848 5862 5854 5844 5842 5851 5855 5851 5851 5846 5842 5839 5836 5833 5830 5828 5825 5820 5815 5811 5807 5803 5801 5799 5796 5794 5792 5790 5790 5789 5787 5785 5784 5783 5782 5782 5779 5778 5777 5775 5774 5773 5771 5769 5770 5771
5841 5837 5836 5839 5851 5857 5844 5831 5840 5851 5855 5854 5852 5850 5845 5840 5833 5829 5826 5824 5821 5815 5811 5809 5804 5800 5798 5796 5794 5792 5789 5786 5785 5783 5782 5783 5782 5781 5778 5778 5776 5775 5773 5770 5770 5769 5766 5764 5767
5836 5853 5850 5845 5835 5830 5836 5808 5829 5840 5843 5847 5847 5848 5845 5843 5839 5832 5828 5823 5821 5818 5814 5808 5804 5800 5797 5795 5791 5787 5783 5780 5780 5780 5780 5781 5780 5779 5777 5776 5774 5773 5772 5770 5769 5768 5766 5764 5761
5849 5862 5856 5850 5839 5828 5835 5819 5821 5839 5831 5838 5845 5847 5846 5844 5841 5835 5832 5827 5825 5821 5816 5808 5803 5798 5796 5793 5790 5786 5782 5781 5781 5780 5778 5777 5777 5777 5775 5774 5772 5771 5769 5768 5767 5766 5765 5763 5760
5863 5856 5851 5849 5837 5809 5829 5821 5808 5829 5834 5837 5843 5845 5845 5844 5842 5838 5836 5830 5826 5822 5816 5810 5802 5796 5794 5791 5789 5784 5781 5779 5776 5775 5773 5773 5773 5773 5772 5771 5770 5768 5767 5765 5764 5763 5762 5761 5759
5856 5834 5811 5805 5805 5810 5838 5827 5820 5841 5849 5846 5843 5843 5845 5844 5840 5835 5831 5825 5822 5818 5814 5809 5801 5795 5793 5790 5787 5784 5781 5778 5774 5773 5772 5770 5770 5768 5768 5768 5766 5765 5764 5762 5761 5760 5758 5757 5755
5847 5835 5805 5788 5792 5812 5831 5820 5829 5851 5855 5855 5851 5847 5844 5841 5838 5833 5829 5825 5820 5816 5810 5805 5799 5794 5791 5788 5784 5782 5779 5777 5775 5773 5772 5770 5768 5767 5766 5765 5763 5762 5760 5759 5757 5756 5754 5753 5752
5841 5837 5844 5823 5816 5806 5812 5823 5836 5849 5848 5848 5846 5844 5841 5839 5836 5832 5828 5824 5819 5814 5809 5803 5797 5793 5790 5787 5783 5780 5777 5775 5772 5771 5770 5768 5766 5766 5764 5762 5759 5758 5756 5755 5753 5751 5749 5748 5747
5857 5848 5836 5818 5794 5784 5796 5802 5808 5825 5831 5838 5838 5837 5838 5837 5834 5829 5826 5822 5819 5814 5809 5803 5797 5792 5789 5786 5782 5779 5776 5773 5771 5769 5766 5765 5763 5761 5759 5757 5755 5753 5751 5750 5748 5746 5745 5742 5741
5847 5842 5836 5825 5816 5791 5781 5797 5829 5828 5834 5834 5835 5837 5835 5833 5830 5826 5822 5818 5815 5812 5807 5801 5797 5792 5788 5785 5781 5778 5774 5772 5770 5767 5764 5762 5759 5758 5755 5752 5750 5748 5746 5744 5742 5740 5739 5736 5735
5854 5848 5841 5815 5806 5809 5799 5801 5842 5840 5841 5836 5833 5833 5832 5830 5827 5823 5819 5814 5810 5806 5803 5797 5794 5791 5788 5784 5780 5775 5773 5770 5766 5762 5760 5758 5755 5753 5750 5748 5745 5743 5740 5738 5736 5733 5732 5730 5728